| time (UTC) | temp F | wind direction | speed MPH | gust MPH | rain 1hr in | rain 24hr in | rain mn in | humidity % | barometer mb |
| 20260507033625 | 60 | 313 | 1.0 | 4.0 | 0.00 | 0.00 | 0.00 | 87 | |
| 20260507032725 | 61 | 329 | 1.0 | 3.0 | 0.00 | 0.00 | 0.00 | 86 | |
| 20260507031804 | 60 | 335 | 0.0 | 1.0 | 0.00 | 0.00 | 0.00 | 86 | |
| 20260507030904 | 61 | 331 | 1.0 | 3.0 | 0.00 | 0.00 | 0.00 | 86 | |
| 20260507030004 | 61 | 314 | 1.0 | 3.0 | 0.00 | 0.00 | 0.00 | 86 | |
| 20260507025404 | 61 | 294 | 1.0 | 3.0 | 0.00 | 0.00 | 0.00 | 86 | |
| 20260507024504 | 61 | 278 | 2.0 | 4.0 | 0.00 | 0.00 | 0.00 | 85 | |
| 20260507023604 | 61 | 294 | 2.0 | 5.0 | 0.00 | 0.00 | 0.00 | 85 | |
| 20260507022725 | 61 | 292 | 1.0 | 4.0 | 0.00 | 0.00 | 0.00 | 85 | |
| 20260507021804 | 62 | 261 | 1.0 | 3.0 | 0.00 | 0.00 | 0.00 | 85 | |
| 20260507020904 | 62 | 243 | 1.0 | 3.0 | 0.00 | 0.00 | 0.00 | 85 | |
| 20260507020004 | 62 | 297 | 1.0 | 3.0 | 0.00 | 0.00 | 0.00 | 85 | |
| 20260507015425 | 62 | 301 | 0.0 | 2.0 | 0.00 | 0.00 | 0.00 | 85 | |
| 20260507014504 | 62 | 302 | 1.0 | 2.0 | 0.00 | 0.00 | 0.00 | 85 | |
| 20260507013604 | 62 | 308 | 2.0 | 4.0 | 0.00 | 0.00 | 0.00 | 84 | |
| 20260507012704 | 62 | 311 | 2.0 | 7.0 | 0.00 | 0.00 | 0.00 | 84 | |
| 20260507011804 | 62 | 258 | 1.0 | 3.0 | 0.00 | 0.00 | 0.00 | 83 | |
| 20260507010926 | 62 | 355 | 0.0 | 1.0 | 0.00 | 0.00 | 0.00 | 83 | |
| 20260507010004 | 62 | 355 | 0.0 | 1.0 | 0.00 | 0.00 | 0.00 | 83 | |
| 20260507005404 | 62 | 355 | 1.0 | 3.0 | 0.00 | 0.00 | 0.00 | 83 | |
| 20260507004504 | 62 | 355 | 2.0 | 4.0 | 0.00 | 0.00 | 0.00 | 83 | |
| 20260507003604 | 62 | 350 | 2.0 | 4.0 | 0.00 | 0.00 | 0.00 | 83 | |
| 20260507002704 | 62 | 318 | 2.0 | 4.0 | 0.00 | 0.00 | 0.00 | 82 | |
| 20260507001804 | 62 | 293 | 1.0 | 3.0 | 0.00 | 0.00 | 0.00 | 82 | |
| 20260507000904 | 62 | 301 | 1.0 | 3.0 | 0.00 | 0.00 | 0.00 | 82 | |
| 20260507000025 | 62 | 303 | 1.0 | 3.0 | 0.00 | 0.00 | 0.00 | 82 | |
| 20260506235404 | 63 | 301 | 2.0 | 4.0 | 0.00 | 0.00 | 0.00 | 82 | |
| 20260506234525 | 63 | 284 | 1.0 | 4.0 | 0.00 | 0.00 | 0.00 | 82 | |
| 20260506233604 | 63 | 275 | 2.0 | 4.0 | 0.00 | 0.00 | 0.00 | 82 | |
| 20260506232703 | 63 | 294 | 2.0 | 4.0 | 0.00 | 0.00 | 0.00 | 82 | |
| 20260506231803 | 63 | 300 | 2.0 | 5.0 | 0.00 | 0.00 | 0.00 | 81 | |
| 20260506230903 | 63 | 295 | 1.0 | 3.0 | 0.00 | 0.00 | 0.00 | 81 | |
| 20260506230004 | 63 | 285 | 1.0 | 4.0 | 0.00 | 0.00 | 0.00 | 81 | |
| 20260506225425 | 63 | 285 | 1.0 | 4.0 | 0.00 | 0.00 | 0.00 | 81 | |
| 20260506224525 | 63 | 274 | 1.0 | 3.0 | 0.00 | 0.00 | 0.00 | 81 | |
| 20260506223604 | 63 | 252 | 1.0 | 2.0 | 0.00 | 0.00 | 0.00 | 81 | |
| 20260506222704 | 63 | 205 | 1.0 | 3.0 | 0.00 | 0.00 | 0.00 | 81 | |
| 20260506221804 | 63 | 224 | 1.0 | 3.0 | 0.00 | 0.00 | 0.00 | 81 | |
| 20260506220904 | 63 | 264 | 1.0 | 4.0 | 0.00 | 0.00 | 0.00 | 81 | |
| 20260506220004 | 63 | 308 | 0.0 | 2.0 | 0.00 | 0.00 | 0.00 | 81 | |
| 20260506215404 | 63 | 308 | 0.0 | 4.0 | 0.00 | 0.00 | 0.00 | 81 | |
| 20260506214525 | 63 | 329 | 3.0 | 6.0 | 0.00 | 0.00 | 0.00 | 81 | |
| 20260506213604 | 63 | 323 | 4.0 | 6.0 | 0.00 | 0.00 | 0.00 | 81 | |
| 20260506212704 | 64 | 301 | 2.0 | 6.0 | 0.00 | 0.00 | 0.00 | 81 | |
| 20260506211804 | 64 | 172 | 2.0 | 5.0 | 0.00 | 0.00 | 0.00 | 81 | |
| 20260506210904 | 64 | 196 | 2.0 | 5.0 | 0.00 | 0.00 | 0.00 | 81 | |
| 20260506210004 | 64 | 291 | 1.0 | 4.0 | 0.00 | 0.00 | 0.00 | 80 | |
| 20260506205404 | 64 | 310 | 2.0 | 4.0 | 0.00 | 0.00 | 0.00 | 80 | |
| 20260506204504 | 64 | 309 | 2.0 | 5.0 | 0.00 | 0.00 | 0.00 | 80 | |
| 20260506203625 | 65 | 303 | 2.0 | 7.0 | 0.00 | 0.00 | 0.00 | 79 | |
| 20260506202725 | 65 | 228 | 3.0 | 6.0 | 0.00 | 0.00 | 0.00 | 79 | |
| 20260506201804 | 65 | 222 | 2.0 | 6.0 | 0.00 | 0.00 | 0.00 | 79 | |
| 20260506200904 | 65 | 256 | 1.0 | 3.0 | 0.00 | 0.00 | 0.00 | 78 | |
| 20260506200004 | 66 | 269 | 2.0 | 4.0 | 0.00 | 0.00 | 0.00 | 78 | |
| 20260506195403 | 66 | 258 | 2.0 | 5.0 | 0.00 | 0.00 | 0.00 | 78 | |
| 20260506194525 | 66 | 255 | 2.0 | 5.0 | 0.00 | 0.00 | 0.00 | 77 | |
| 20260506193604 | 65 | 283 | 1.0 | 3.0 | 0.00 | 0.00 | 0.00 | 77 | |
| 20260506192704 | 66 | 299 | 2.0 | 7.0 | 0.00 | 0.00 | 0.00 | 77 | |
| 20260506191825 | 66 | 291 | 2.0 | 7.0 | 0.00 | 0.00 | 0.00 | 76 | |
| 20260506190925 | 66 | 301 | 4.0 | 8.0 | 0.00 | 0.00 | 0.00 | 76 | |
| 20260506190004 | 66 | 305 | 3.0 | 8.0 | 0.00 | 0.00 | 0.00 | 75 | |
| 20260506185404 | 67 | 297 | 3.0 | 8.0 | 0.00 | 0.00 | 0.00 | 73 | |
| 20260506184504 | 68 | 292 | 2.0 | 7.0 | 0.00 | 0.00 | 0.00 | 73 | |
| 20260506183604 | 67 | 310 | 3.0 | 6.0 | 0.00 | 0.00 | 0.00 | 73 | |
| 20260506182704 | 67 | 311 | 4.0 | 8.0 | 0.00 | 0.00 | 0.00 | 73 | |
| 20260506181804 | 68 | 305 | 5.0 | 9.0 | 0.00 | 0.00 | 0.00 | 72 | |
| 20260506180925 | 68 | 302 | 3.0 | 9.0 | 0.00 | 0.00 | 0.00 | 72 | |
| 20260506180005 | 68 | 337 | 4.0 | 10.0 | 0.00 | 0.00 | 0.00 | 72 | |
| 20260506175404 | 68 | 334 | 4.0 | 10.0 | 0.00 | 0.00 | 0.00 | 72 | |
| 20260506174504 | 68 | 320 | 4.0 | 9.0 | 0.00 | 0.00 | 0.00 | 72 | |
| 20260506173603 | 69 | 319 | 3.0 | 8.0 | 0.00 | 0.00 | 0.00 | 71 | |
| 20260506172704 | 69 | 282 | 3.0 | 8.0 | 0.00 | 0.00 | 0.00 | 70 | |
| 20260506171804 | 68 | 314 | 3.0 | 8.0 | 0.00 | 0.00 | 0.00 | 71 | |
| 20260506170904 | 69 | 313 | 4.0 | 9.0 | 0.00 | 0.00 | 0.00 | 69 | |
| 20260506170025 | 69 | 338 | 4.0 | 8.0 | 0.00 | 0.00 | 0.00 | 70 | |
| 20260506165404 | 69 | 342 | 4.0 | 9.0 | 0.00 | 0.00 | 0.00 | 69 | |
| 20260506164525 | 69 | 342 | 5.0 | 11.0 | 0.00 | 0.00 | 0.00 | 71 | |
| 20260506163604 | 69 | 310 | 5.0 | 11.0 | 0.00 | 0.00 | 0.00 | 71 | |
| 20260506162704 | 69 | 322 | 5.0 | 10.0 | 0.00 | 0.00 | 0.00 | 71 | |
| 20260506161803 | 69 | 330 | 5.0 | 11.0 | 0.00 | 0.00 | 0.00 | 70 | |
| 20260506160904 | 69 | 342 | 6.0 | 11.0 | 0.00 | 0.00 | 0.00 | 71 | |
| 20260506160004 | 70 | 343 | 5.0 | 10.0 | 0.00 | 0.00 | 0.00 | 71 | |
| 20260506155404 | 70 | 342 | 6.0 | 11.0 | 0.00 | 0.00 | 0.00 | 71 | |
| 20260506154525 | 70 | 336 | 6.0 | 11.0 | 0.00 | 0.00 | 0.00 | 70 | |
| 20260506153604 | 70 | 336 | 6.0 | 14.0 | 0.00 | 0.00 | 0.00 | 70 | |
| 20260506152725 | 69 | 338 | 6.0 | 14.0 | 0.00 | 0.00 | 0.00 | 71 | |
| 20260506151804 | 69 | 352 | 5.0 | 10.0 | 0.00 | 0.00 | 0.00 | 72 | |
| 20260506150903 | 68 | 348 | 6.0 | 13.0 | 0.00 | 0.00 | 0.00 | 72 | |
| 20260506150004 | 69 | 336 | 6.0 | 12.0 | 0.00 | 0.00 | 0.00 | 72 | |
| 20260506145403 | 69 | 345 | 7.0 | 12.0 | 0.00 | 0.00 | 0.00 | 73 | |
| 20260506144503 | 69 | 353 | 6.0 | 12.0 | 0.00 | 0.00 | 0.00 | 72 | |
| 20260506143604 | 68 | 340 | 3.0 | 9.0 | 0.00 | 0.00 | 0.00 | 73 | |
| 20260506142704 | 68 | 6 | 4.0 | 9.0 | 0.00 | 0.00 | 0.00 | 74 | |
| 20260506141804 | 68 | 335 | 7.0 | 14.0 | 0.00 | 0.00 | 0.00 | 74 | |
| 20260506140904 | 68 | 339 | 7.0 | 14.0 | 0.00 | 0.00 | 0.00 | 73 | |
| 20260506140004 | 69 | 2 | 6.0 | 12.0 | 0.00 | 0.00 | 0.00 | 74 | |
| 20260506135425 | 68 | 356 | 6.0 | 10.0 | 0.00 | 0.00 | 0.00 | 74 | |
| 20260506134504 | 68 | 330 | 4.0 | 9.0 | 0.00 | 0.00 | 0.00 | 75 | |
| 20260506133604 | 68 | 1 | 4.0 | 9.0 | 0.00 | 0.00 | 0.00 | 75 | |
| 20260506132725 | 68 | 348 | 2.0 | 6.0 | 0.00 | 0.00 | 0.00 | 76 | |
| 20260506131804 | 67 | 351 | 4.0 | 8.0 | 0.00 | 0.00 | 0.00 | 76 | |
| 20260506130925 | 67 | 348 | 3.0 | 7.0 | 0.00 | 0.00 | 0.00 | 77 | |
| 20260506130004 | 66 | 327 | 3.0 | 8.0 | 0.00 | 0.00 | 0.00 | 78 | |
| 20260506125404 | 66 | 324 | 3.0 | 8.0 | 0.00 | 0.00 | 0.00 | 78 | |
| 20260506124504 | 66 | 347 | 4.0 | 9.0 | 0.00 | 0.00 | 0.00 | 79 | |
| 20260506123603 | 65 | 356 | 6.0 | 10.0 | 0.00 | 0.00 | 0.00 | 79 | |
| 20260506122704 | 66 | 355 | 7.0 | 11.0 | 0.00 | 0.00 | 0.00 | 78 | |
| 20260506121804 | 67 | 356 | 5.0 | 11.0 | 0.00 | 0.00 | 0.00 | 78 | |
| 20260506120904 | 66 | 13 | 3.0 | 8.0 | 0.00 | 0.00 | 0.00 | 80 | |
| 20260506120025 | 66 | 25 | 2.0 | 8.0 | 0.00 | 0.00 | 0.00 | 80 | |
| 20260506115404 | 66 | 337 | 2.0 | 8.0 | 0.00 | 0.00 | 0.00 | 81 | |
| 20260506114503 | 65 | 351 | 3.0 | 8.0 | 0.00 | 0.00 | 0.00 | 81 | |
| 20260506113624 | 65 | 349 | 2.0 | 8.0 | 0.00 | 0.00 | 0.00 | 82 | |
| 20260506112704 | 65 | 337 | 4.0 | 9.0 | 0.00 | 0.00 | 0.00 | 82 | |
| 20260506111804 | 64 | 326 | 3.0 | 6.0 | 0.00 | 0.00 | 0.00 | 82 | |
| 20260506110904 | 64 | 320 | 1.0 | 3.0 | 0.00 | 0.00 | 0.00 | 83 | |
| 20260506110004 | 64 | 324 | 2.0 | 5.0 | 0.00 | 0.00 | 0.00 | 83 | |
| 20260506105404 | 64 | 345 | 3.0 | 8.0 | 0.00 | 0.00 | 0.00 | 83 | |
| 20260506104504 | 64 | 346 | 3.0 | 8.0 | 0.00 | 0.00 | 0.00 | 83 | |
| 20260506103604 | 65 | 341 | 5.0 | 9.0 | 0.00 | 0.00 | 0.00 | 82 | |
| 20260506102725 | 66 | 347 | 5.0 | 11.0 | 0.00 | 0.00 | 0.00 | 80 | |
| 20260506101804 | 66 | 333 | 2.0 | 6.0 | 0.00 | 0.00 | 0.00 | 78 | |
| 20260506100925 | 65 | 326 | 2.0 | 4.0 | 0.00 | 0.00 | 0.00 | 81 | |
| 20260506100004 | 64 | 339 | 1.0 | 3.0 | 0.00 | 0.00 | 0.00 | 82 | |
| 20260506095403 | 64 | 230 | 1.0 | 2.0 | 0.00 | 0.00 | 0.00 | 84 | |
| 20260506094503 | 63 | 279 | 1.0 | 3.0 | 0.00 | 0.00 | 0.00 | 85 | |
| 20260506093604 | 63 | 301 | 1.0 | 3.0 | 0.00 | 0.00 | 0.00 | 85 | |
| 20260506092704 | 62 | 312 | 1.0 | 4.0 | 0.00 | 0.00 | 0.00 | 85 | |
| 20260506091804 | 62 | 308 | 1.0 | 4.0 | 0.00 | 0.00 | 0.00 | 85 | |
| 20260506090904 | 62 | 307 | 2.0 | 7.0 | 0.00 | 0.00 | 0.00 | 85 | |
| 20260506090004 | 62 | 305 | 3.0 | 8.0 | 0.00 | 0.00 | 0.00 | 85 | |
| 20260506085404 | 62 | 307 | 2.0 | 8.0 | 0.00 | 0.00 | 0.00 | 84 | |
| 20260506083603 | 62 | 316 | 2.0 | 3.0 | 0.00 | 0.00 | 0.00 | 84 | |
| 20260506082703 | 62 | 312 | 3.0 | 5.0 | 0.00 | 0.00 | 0.00 | 84 | |
| 20260506081803 | 62 | 303 | 1.0 | 3.0 | 0.00 | 0.00 | 0.00 | 84 | |
| 20260506080903 | 62 | 302 | 1.0 | 4.0 | 0.00 | 0.00 | 0.00 | 84 | |
| 20260506072704 | 61 | 224 | 1.0 | 3.0 | 0.00 | 0.00 | 0.00 | 83 | |
| 20260506071804 | 61 | 207 | 0.0 | 1.0 | 0.00 | 0.00 | 0.00 | 83 | |
| 20260506070903 | 60 | 207 | 0.0 | 1.0 | 0.00 | 0.00 | 0.00 | 82 | |
| 20260506061804 | 59 | 207 | 0.0 | 1.0 | 0.00 | 0.00 | 0.00 | 82 | |
| 20260506060903 | 59 | 207 | 1.0 | 3.0 | 0.00 | 0.00 | 0.00 | 82 | |
| 20260506050903 | 60 | 207 | 1.0 | 2.0 | 0.00 | 0.00 | 0.00 | 81 | |
| 20260506044524 | 60 | 207 | 1.0 | 3.0 | 0.00 | 0.00 | 0.00 | 80 | |
| 20260506043604 | 60 | 207 | 1.0 | 2.0 | 0.00 | 0.00 | 0.00 | 79 | |
| 20260506042704 | 60 | 207 | 1.0 | 2.0 | 0.00 | 0.00 | 0.00 | 79 | |
| 20260506041804 | 60 | 207 | 1.0 | 3.0 | 0.00 | 0.00 | 0.00 | 79 | |
| 20260506040903 | 60 | 207 | 1.0 | 3.0 | 0.00 | 0.00 | 0.00 | 80 | |
| 20260506040025 | 60 | 207 | 1.0 | 3.0 | 0.00 | 0.00 | 0.00 | 80 | |
| 20260506035404 | 60 | 207 | 1.0 | 3.0 | 0.00 | 0.00 | 0.00 | 80 | |
| 20260506034503 | 60 | 209 | 1.0 | 3.0 | 0.00 | 0.00 | 0.00 | 81 |